TimeMST,TemperatureF,Dew PointF,Humidity,Sea Level PressureIn,VisibilityMPH,Wind Direction,Wind SpeedMPH,Gust SpeedMPH,PrecipitationIn,Events,Conditions,WindDirDegrees,DateUTC
12:53 AM,18.0,14.0,84,30.09,10.0,Calm,Calm,-,N/A,,Clear,0,2013-01-22 07:53:00
1:53 AM,16.0,12.0,84,30.10,10.0,NNW,4.6,-,N/A,,Clear,340,2013-01-22 08:53:00
2:53 AM,15.1,10.0,80,30.12,10.0,Calm,Calm,-,N/A,,Clear,0,2013-01-22 09:53:00
3:53 AM,16.0,10.0,77,30.12,10.0,SW,4.6,-,N/A,,Clear,230,2013-01-22 10:53:00
4:53 AM,19.0,10.0,68,30.14,10.0,Calm,Calm,-,N/A,,Clear,0,2013-01-22 11:53:00
5:53 AM,18.0,10.0,71,30.16,10.0,Calm,Calm,-,N/A,,Clear,0,2013-01-22 12:53:00
6:53 AM,17.1,10.0,74,30.18,10.0,SSW,5.8,-,N/A,,Clear,210,2013-01-22 13:53:00
7:53 AM,18.0,9.0,68,30.19,10.0,WNW,3.5,-,N/A,,Clear,300,2013-01-22 14:53:00
8:53 AM,28.9,16.0,58,30.17,10.0,South,3.5,-,N/A,,Clear,180,2013-01-22 15:53:00
9:53 AM,36.0,23.0,59,30.17,10.0,Calm,Calm,-,N/A,,Clear,0,2013-01-22 16:53:00
10:53 AM,45.0,17.1,33,30.15,10.0,Calm,Calm,-,N/A,,Clear,0,2013-01-22 17:53:00
11:53 AM,46.9,10.0,22,30.14,10.0,NW,6.9,-,N/A,,Clear,320,2013-01-22 18:53:00
12:53 PM,48.0,10.9,22,30.12,10.0,NW,8.1,-,N/A,,Clear,310,2013-01-22 19:53:00
1:53 PM,48.0,10.0,22,30.12,10.0,NNW,5.8,-,N/A,,Clear,330,2013-01-22 20:53:00
2:53 PM,48.9,10.9,22,30.12,10.0,NW,5.8,-,N/A,,Clear,310,2013-01-22 21:53:00
3:53 PM,46.9,15.1,28,30.14,10.0,NNW,3.5,-,N/A,,Clear,330,2013-01-22 22:53:00
4:53 PM,34.0,19.9,56,30.15,10.0,SW,5.8,-,N/A,,Clear,220,2013-01-22 23:53:00
5:53 PM,32.0,17.1,54,30.16,10.0,SSW,6.9,-,N/A,,Clear,210,2013-01-23 00:53:00
6:53 PM,28.9,19.0,67,30.17,10.0,Calm,Calm,-,N/A,,Clear,0,2013-01-23 01:53:00
7:53 PM,25.0,16.0,69,30.17,10.0,Calm,Calm,-,N/A,,Clear,0,2013-01-23 02:53:00
8:53 PM,23.0,16.0,74,30.14,10.0,Calm,Calm,-,N/A,,Clear,0,2013-01-23 03:53:00
9:53 PM,26.1,16.0,66,30.11,10.0,Calm,Calm,-,N/A,,Unknown,0,2013-01-23 04:53:00
10:53 PM,28.0,14.0,56,30.09,10.0,Calm,Calm,-,N/A,,Clear,0,2013-01-23 05:53:00
11:53 PM,26.1,17.1,69,30.07,10.0,Calm,Calm,-,N/A,,Clear,0,2013-01-23 06:53:00